EW8660 Weather Reports


Display with metric or nautical units.
time (UTC)temp
F
wind
direction
speed
MPH
gust
MPH
rain 1hr
in
rain 24hr
in
rain mn
in
humidity
%
barometer
mb
20210624144634 61 258 0.0 1.0 0.00 0.00 0.00 81 1016.9
20210624144128 60 258 0.0 1.0 0.00 0.00 0.00 82 1016.8
20210624143621 59 258 0.0 1.0 0.00 0.00 0.00 83 1016.9
20210624143116 59 264 0.0 2.0 0.00 0.00 0.00 84 1016.9
20210624142610 58 290 0.0 2.0 0.00 0.00 0.00 85 1016.9
20210624142107 58 271 1.0 2.0 0.00 0.00 0.00 86 1016.9
20210624141558 58 321 1.0 4.0 0.00 0.00 0.00 86 1016.8
20210624141053 57 244 2.0 5.0 0.00 0.00 0.00 87 1016.8
20210624140546 57 261 1.0 5.0 0.00 0.00 0.00 87 1016.9
20210624140041 57 289 1.0 4.0 0.00 0.00 0.00 87 1016.8
20210624135534 57 295 1.0 3.0 0.00 0.00 0.00 88 1016.8
20210624135028 56 270 1.0 3.0 0.00 0.00 0.00 88 1016.8
20210624134522 56 241 0.0 3.0 0.00 0.00 0.00 89 1016.7
20210624134022 56 252 0.0 2.0 0.00 0.00 0.00 89 1016.6
20210624133519 56 304 0.0 1.0 0.00 0.00 0.00 89 1016.6
20210624133020 55 258 0.0 1.0 0.00 0.00 0.00 90 1016.6
20210624132521 55 258 0.0 1.0 0.00 0.00 0.00 90 1016.4
20210624132017 55 221 0.0 1.0 0.00 0.00 0.00 91 1016.4
20210624131516 55 222 0.0 1.0 0.00 0.00 0.00 91 1016.4
20210624131015 54 165 0.0 1.0 0.00 0.00 0.00 91 1016.3
20210624130513 54 226 0.0 1.0 0.00 0.00 0.00 91 1016.3
20210624130011 54 243 0.0 1.0 0.00 0.00 0.00 91 1016.3
20210624125509 54 208 0.0 4.0 0.00 0.00 0.00 91 1016.4
20210624125005 54 221 0.0 4.0 0.00 0.00 0.00 91 1016.3
20210624124505 54 226 0.0 2.0 0.00 0.00 0.00 91 1016.3
20210624124005 54 267 0.0 2.0 0.00 0.00 0.00 91 1016.2
20210624123505 54 240 0.0 2.0 0.00 0.00 0.00 91 1016.3
20210624123009 54 276 0.0 1.0 0.00 0.00 0.00 91 1016.3
20210624122504 54 257 0.0 1.0 0.00 0.00 0.00 91 1016.3
20210624122002 54 257 0.0 2.0 0.00 0.00 0.00 90 1016.3
20210624121459 54 257 0.0 2.0 0.00 0.00 0.00 90 1016.3
20210624120958 55 249 0.0 2.0 0.00 0.00 0.00 90 1016.3
20210624120456 55 238 0.0 3.0 0.00 0.00 0.00 90 1016.3
20210624115956 55 259 1.0 4.0 0.00 0.00 0.00 90 1016.2
20210624115450 55 253 1.0 4.0 0.00 0.00 0.00 90 1016.2
20210624114944 55 262 1.0 4.0 0.00 0.00 0.00 90 1016.1
20210624114437 55 262 1.0 4.0 0.00 0.00 0.00 90 1016.1
20210624113932 55 249 1.0 5.0 0.00 0.00 0.00 90 1016.0
20210624113426 55 264 2.0 5.0 0.00 0.00 0.00 90 1015.9
20210624112920 55 278 2.0 5.0 0.00 0.00 0.00 90 1015.9
20210624112414 55 254 2.0 5.0 0.00 0.00 0.00 89 1015.9
20210624111908 55 255 1.0 5.0 0.00 0.00 0.00 90 1015.8
20210624111402 55 245 0.0 2.0 0.00 0.00 0.00 90 1015.7
20210624110856 55 267 0.0 2.0 0.00 0.00 0.00 89 1015.8
20210624110623 55 264 0.0 4.0 0.00 0.00 0.00 89 1015.8
20210624105850 55 259 1.0 4.0 0.00 0.00 0.00 89 1015.6
20210624105347 55 239 1.0 4.0 0.00 0.00 0.00 89 1015.6
20210624104836 55 262 1.0 4.0 0.00 0.00 0.00 89 1015.5
20210624104331 55 264 1.0 4.0 0.00 0.00 0.00 89 1015.5
20210624103823 55 250 1.0 3.0 0.00 0.00 0.00 89 1015.6
20210624103317 55 274 1.0 5.0 0.00 0.00 0.00 89 1015.5
20210624103041 55 260 1.0 5.0 0.00 0.00 0.00 89 1015.5
20210624102810 55 260 1.0 5.0 0.00 0.00 0.00 89 1015.5
20210624102306 55 207 2.0 5.0 0.00 0.00 0.00 89 1015.5
20210624101759 55 231 1.0 5.0 0.00 0.00 0.00 88 1015.4
20210624101252 55 259 1.0 5.0 0.00 0.00 0.00 88 1015.4
20210624100750 55 262 1.0 6.0 0.00 0.00 0.00 88 1015.4
20210624100240 55 261 2.0 5.0 0.00 0.00 0.00 88 1015.4
20210624095737 55 263 2.0 6.0 0.00 0.00 0.00 88 1015.3
20210624095238 56 238 1.0 5.0 0.00 0.00 0.00 87 1015.3
20210624094729 56 259 1.0 5.0 0.00 0.00 0.00 87 1015.3
20210624094219 56 228 1.0 5.0 0.00 0.00 0.00 87 1015.3
20210624093725 56 251 1.0 5.0 0.00 0.00 0.00 87 1015.3
20210624093210 56 238 1.0 5.0 0.00 0.00 0.00 87 1015.3
20210624092713 56 267 1.0 4.0 0.00 0.00 0.00 87 1015.2
20210624092223 56 242 2.0 5.0 0.00 0.00 0.00 86 1015.2
20210624091707 56 267 1.0 5.0 0.00 0.00 0.00 86 1015.1
20210624091211 56 273 1.0 5.0 0.00 0.00 0.00 86 1015.0
20210624090707 56 208 1.0 5.0 0.00 0.00 0.00 86 1014.9
20210624090208 56 256 2.0 6.0 0.00 0.00 0.00 86 1014.8
20210624085710 56 283 2.0 6.0 0.00 0.00 0.00 86 1014.8
20210624085209 57 269 1.0 5.0 0.00 0.00 0.00 86 1014.8
20210624084944 57 264 1.0 3.0 0.00 0.00 0.00 86 1014.7
20210624084716 57 264 1.0 3.0 0.00 0.00 0.00 86 1014.7
20210624084447 57 269 1.0 5.0 0.00 0.00 0.00 86 1014.7
20210624084209 57 269 1.0 5.0 0.00 0.00 0.00 86 1014.7
20210624083708 57 269 1.0 5.0 0.00 0.00 0.00 85 1014.7
20210624083205 57 249 2.0 8.0 0.00 0.00 0.00 85 1014.6
20210624082703 57 266 2.0 8.0 0.00 0.00 0.00 85 1014.6
20210624082211 57 240 2.0 6.0 0.00 0.00 0.00 85 1014.6
20210624081657 57 277 2.0 6.0 0.00 0.00 0.00 85 1014.6
20210624081156 57 253 2.0 6.0 0.00 0.00 0.00 85 1014.5
20210624080703 57 267 2.0 6.0 0.00 0.00 0.00 85 1014.5
20210624080202 57 220 2.0 6.0 0.00 0.00 0.00 85 1014.4
20210624075657 57 247 1.0 6.0 0.00 0.00 0.00 85 1014.5
20210624075200 57 272 1.0 4.0 0.00 0.00 0.00 84 1014.5
20210624074657 58 276 2.0 5.0 0.00 0.00 0.00 84 1014.5
20210624074158 58 252 2.0 6.0 0.00 0.00 0.00 84 1014.4
20210624073702 58 262 2.0 6.0 0.00 0.00 0.00 84 1014.5
20210624073152 58 243 2.0 5.0 0.00 0.00 0.00 84 1014.4
20210624072653 58 217 2.0 6.0 0.00 0.00 0.00 84 1014.5
20210624072156 58 230 2.0 6.0 0.00 0.00 0.00 84 1014.4
20210624071658 58 261 1.0 5.0 0.00 0.00 0.00 84 1014.4
20210624071152 58 264 2.0 6.0 0.00 0.00 0.00 83 1014.4
20210624070655 58 231 2.0 6.0 0.00 0.00 0.00 83 1014.5
20210624070157 58 277 2.0 7.0 0.00 0.00 0.00 83 1014.5
20210624065658 58 164 2.0 7.0 0.00 0.00 0.00 83 1014.5
20210624065155 58 246 2.0 6.0 0.00 0.00 0.00 83 1014.5
20210624064656 58 297 2.0 7.0 0.00 0.00 0.00 83 1014.5
20210624064202 58 207 2.0 7.0 0.00 0.00 0.00 83 1014.5
20210624063659 59 245 1.0 5.0 0.00 0.00 0.00 82 1014.5
20210624063154 59 214 2.0 6.0 0.00 0.00 0.00 82 1014.4
20210624062652 59 266 2.0 6.0 0.00 0.00 0.00 82 1014.5
20210624062158 59 270 2.0 7.0 0.00 0.00 0.00 82 1014.6
20210624061652 59 250 2.0 7.0 0.00 0.00 0.00 82 1014.6
20210624061153 59 278 3.0 10.0 0.00 0.00 0.00 82 1014.5
20210624060653 59 171 3.0 10.0 0.00 0.00 0.00 81 1014.6
20210624060201 59 238 2.0 8.0 0.00 0.00 0.00 81 1014.6
20210624055651 59 253 2.0 8.0 0.00 0.00 0.00 81 1014.6
20210624055155 59 265 3.0 8.0 0.00 0.00 0.00 80 1014.6
20210624054700 60 273 3.0 9.0 0.00 0.00 0.00 80 1014.6
20210624054153 60 265 3.0 9.0 0.00 0.00 0.00 79 1014.5
20210624053651 60 283 2.0 8.0 0.00 0.00 0.00 79 1014.4
20210624053150 60 231 2.0 7.0 0.00 0.00 0.00 78 1014.4
20210624052650 61 265 2.0 7.0 0.00 0.00 0.00 78 1014.3
20210624052152 61 275 2.0 7.0 0.00 0.00 0.00 77 1014.2
20210624051651 61 267 3.0 8.0 0.00 0.00 0.00 77 1014.0
20210624051151 61 265 4.0 10.0 0.00 0.00 0.00 76 1013.9
20210624050652 61 200 3.0 10.0 0.00 0.00 0.00 76 1013.8
20210624050150 61 265 2.0 8.0 0.00 0.00 0.00 76 1013.9
20210624045652 62 291 2.0 10.0 0.00 0.00 0.00 75 1013.8
20210624045145 62 269 3.0 11.0 0.00 0.00 0.00 75 1013.6
20210624044648 62 276 4.0 11.0 0.00 0.00 0.00 75 1013.6
20210624044146 62 245 3.0 8.0 0.00 0.00 0.00 74 1013.6
20210624043645 63 248 4.0 11.0 0.00 0.00 0.00 74 1013.5
20210624043147 63 239 5.0 12.0 0.00 0.00 0.00 73 1013.4
20210624042652 63 262 4.0 12.0 0.00 0.00 0.00 72 1013.4
20210624042146 64 211 3.0 10.0 0.00 0.00 0.00 71 1013.2
20210624041646 64 257 4.0 12.0 0.00 0.00 0.00 71 1013.1
20210624041151 64 263 5.0 12.0 0.00 0.00 0.00 70 1012.9
20210624040641 65 246 4.0 10.0 0.00 0.00 0.00 70 1012.8
20210624040143 65 290 4.0 12.0 0.00 0.00 0.00 69 1012.7
20210624035642 65 240 4.0 12.0 0.00 0.00 0.00 69 1012.6
20210624035146 66 280 3.0 11.0 0.00 0.00 0.00 68 1012.7
20210624034640 66 265 3.0 9.0 0.00 0.00 0.00 68 1012.6
20210624034140 66 236 3.0 11.0 0.00 0.00 0.00 67 1012.5
20210624033642 67 263 4.0 11.0 0.00 0.00 0.00 67 1012.5
20210624033144 67 262 4.0 10.0 0.00 0.00 0.00 66 1012.4
20210624032642 68 283 4.0 11.0 0.00 0.00 0.00 65 1012.4
20210624032136 68 261 5.0 12.0 0.00 0.00 0.00 64 1012.2
20210624031632 69 264 5.0 12.0 0.00 0.00 0.00 63 1012.2
20210624031124 69 267 5.0 12.0 0.00 0.00 0.00 62 1012.1
20210624030617 70 277 3.0 10.0 0.00 0.00 0.00 61 1012.2
20210624030111 70 226 3.0 8.0 0.00 0.00 0.00 61 1012.1
20210624025605 71 305 3.0 10.0 0.00 0.00 0.00 60 1012.1
20210624025101 71 279 4.0 10.0 0.00 0.00 0.00 59 1012.0
20210624024600 72 321 4.0 12.0 0.00 0.00 0.00 58 1012.0
20210624024101 73 293 4.0 13.0 0.00 0.00 0.00 58 1012.0
20210624023600 73 296 4.0 13.0 0.00 0.00 0.00 58 1012.0
20210624023058 73 266 4.0 9.0 0.00 0.00 0.00 57 1011.9
20210624022559 74 288 3.0 8.0 0.00 0.00 0.00 56 1011.7
20210624022058 74 347 4.0 11.0 0.00 0.00 0.00 56 1011.7
20210624021557 74 263 3.0 11.0 0.00 0.00 0.00 56 1011.6
20210624021106 74 330 4.0 13.0 0.00 0.00 0.00 57 1011.4
20210624020554 74 260 5.0 17.0 0.00 0.00 0.00 57 1011.4
20210624020104 75 267 5.0 17.0 0.00 0.00 0.00 56 1011.4
20210624015554 75 266 4.0 10.0 0.00 0.00 0.00 56 1011.3
20210624015056 76 278 4.0 12.0 0.00 0.00 0.00 56 1011.2
20210624014553 76 303 5.0 12.0 0.00 0.00 0.00 55 1011.3
20210624014105 77 271 5.0 13.0 0.00 0.00 0.00 54 1011.2
20210624013552 77 233 5.0 13.0 0.00 0.00 0.00 54 1011.2
20210624013114 77 309 5.0 9.0 0.00 0.00 0.00 54 1011.2
20210624012555 78 252 5.0 11.0 0.00 0.00 0.00 53 1011.1
20210624012103 78 335 5.0 11.0 0.00 0.00 0.00 54 1011.1
20210624011547 78 321 5.0 13.0 0.00 0.00 0.00 53 1011.1
20210624011046 79 336 6.0 13.0 0.00 0.00 0.00 53 1011.1
20210624010534 79 264 6.0 14.0 0.00 0.00 0.00 52 1011.1
20210624010036 80 280 6.0 14.0 0.00 0.00 0.00 51 1011.1
20210624005519 81 243 4.0 12.0 0.00 0.00 0.00 51 1011.0
20210624005013 81 283 4.0 8.0 0.00 0.00 0.00 50 1011.1
20210624004505 82 297 4.0 11.0 0.00 0.00 0.00 50 1011.0
20210624004005 82 270 4.0 11.0 0.00 0.00 0.00 49 1011.1
20210624003501 82 283 4.0 10.0 0.00 0.00 0.00 50 1011.1
20210624002953 83 236 5.0 10.0 0.00 0.00 0.00 49 1011.1
20210624002441 83 297 3.0 10.0 0.00 0.00 0.00 49 1010.9
20210624001935 83 301 3.0 7.0 0.00 0.00 0.00 47 1011.0
20210624001435 83 164 3.0 6.0 0.00 0.00 0.00 48 1011.0
20210624000923 84 300 2.0 6.0 0.00 0.00 0.00 48 1011.0
20210624000417 83 263 2.0 5.0 0.00 0.00 0.00 49 1011.0
20210623235917 83 266 2.0 6.0 0.00 0.00 0.00 47 1011.0
20210623235405 84 114 1.0 6.0 0.00 0.00 0.00 47 1011.0
20210623234859 84 244 1.0 3.0 0.00 0.00 0.00 49 1011.0
20210623234354 83 120 1.0 4.0 0.00 0.00 0.00 48 1011.1
20210623233847 82 125 2.0 6.0 0.00 0.00 0.00 51 1011.1
20210623233342 81 273 3.0 6.0 0.00 0.00 0.00 49 1011.2
20210623232836 82 316 2.0 6.0 0.00 0.00 0.00 49 1011.1
20210623232329 82 27 2.0 5.0 0.00 0.00 0.00 49 1011.2
20210623231823 82 251 2.0 5.0 0.00 0.00 0.00 50 1011.2
20210623231318 82 257 2.0 5.0 0.00 0.00 0.00 51 1011.2
20210623230821 82 165 2.0 5.0 0.00 0.00 0.00 51 1011.2
20210623230305 81 242 2.0 5.0 0.00 0.00 0.00 51 1011.2
20210623225759 81 323 3.0 7.0 0.00 0.00 0.00 51 1011.2
20210623225253 80 304 3.0 7.0 0.00 0.00 0.00 51 1011.2
20210623224753 81 314 2.0 6.0 0.00 0.00 0.00 51 1011.3
20210623224241 81 238 2.0 6.0 0.00 0.00 0.00 54 1011.3
20210623223740 80 231 3.0 8.0 0.00 0.00 0.00 54 1011.4
20210623223234 81 264 2.0 8.0 0.00 0.00 0.00 52 1011.6
20210623222730 81 269 2.0 6.0 0.00 0.00 0.00 52 1011.4
20210623222217 80 156 2.0 7.0 0.00 0.00 0.00 53 1011.6
20210623221719 80 234 2.0 7.0 0.00 0.00 0.00 51 1011.6
20210623221211 80 10 2.0 5.0 0.00 0.00 0.00 52 1011.8
20210623220659 80 160 2.0 5.0 0.00 0.00 0.00 52 1011.7
20210623220153 79 316 2.0 6.0 0.00 0.00 0.00 52 1011.8
20210623215647 79 274 2.0 6.0 0.00 0.00 0.00 53 1011.8
20210623215147 79 252 2.0 7.0 0.00 0.00 0.00 53 1011.8
20210623214637 79 354 2.0 7.0 0.00 0.00 0.00 54 1011.9
20210623214132 78 126 3.0 7.0 0.00 0.00 0.00 56 1011.9
20210623213632 78 334 3.0 7.0 0.00 0.00 0.00 53 1012.0
20210623213118 78 334 3.0 7.0 0.00 0.00 0.00 55 1012.0
20210623212614 78 51 3.0 7.0 0.00 0.00 0.00 55 1012.0
20210623212105 78 356 2.0 6.0 0.00 0.00 0.00 54 1012.0
20210623211600 78 287 2.0 6.0 0.00 0.00 0.00 56 1012.1
20210623211054 78 313 1.0 4.0 0.00 0.00 0.00 55 1012.1
20210623210547 78 285 2.0 4.0 0.00 0.00 0.00 56 1012.2
20210623210041 77 252 2.0 7.0 0.00 0.00 0.00 57 1012.2
20210623205535 77 254 2.0 7.0 0.00 0.00 0.00 57 1012.2
20210623205030 77 274 2.0 4.0 0.00 0.00 0.00 58 1012.3
20210623204526 76 8 3.0 9.0 0.00 0.00 0.00 57 1012.4
20210623204017 77 264 3.0 9.0 0.00 0.00 0.00 57 1012.4
20210623203512 77 340 2.0 4.0 0.00 0.00 0.00 58 1012.4
20210623203005 76 290 2.0 4.0 0.00 0.00 0.00 57 1012.4
20210623202459 76 115 1.0 4.0 0.00 0.00 0.00 59 1012.4
20210623201956 75 145 2.0 7.0 0.00 0.00 0.00 59 1012.5
20210623201447 75 328 2.0 7.0 0.00 0.00 0.00 59 1012.5
20210623200942 75 265 2.0 5.0 0.00 0.00 0.00 60 1012.5
20210623200442 74 155 3.0 8.0 0.00 0.00 0.00 61 1012.6
20210623195942 74 302 3.0 8.0 0.00 0.00 0.00 60 1012.6
20210623195443 75 325 2.0 8.0 0.00 0.00 0.00 60 1012.6
20210623194943 75 213 2.0 4.0 0.00 0.00 0.00 59 1012.7
20210623194442 75 288 1.0 6.0 0.00 0.00 0.00 60 1012.7
20210623193942 74 273 1.0 6.0 0.00 0.00 0.00 61 1012.7
20210623193444 74 356 1.0 4.0 0.00 0.00 0.00 61 1012.8
20210623192943 74 300 3.0 6.0 0.00 0.00 0.00 62 1012.8
20210623192443 73 285 2.0 6.0 0.00 0.00 0.00 62 1012.9
20210623191942 73 300 2.0 5.0 0.00 0.00 0.00 62 1012.9
20210623191443 72 120 2.0 7.0 0.00 0.00 0.00 64 1012.9
20210623190937 72 311 3.0 8.0 0.00 0.00 0.00 63 1012.9
20210623190440 73 297 2.0 8.0 0.00 0.00 0.00 62 1012.9
20210623185938 72 4 1.0 5.0 0.00 0.00 0.00 64 1012.9
20210623185439 72 323 2.0 6.0 0.00 0.00 0.00 64 1013.0
20210623184940 72 295 2.0 6.0 0.00 0.00 0.00 63 1013.0
20210623184437 71 242 2.0 5.0 0.00 0.00 0.00 64 1013.0
20210623183938 71 269 2.0 5.0 0.00 0.00 0.00 65 1013.0
20210623183439 71 70 2.0 5.0 0.00 0.00 0.00 66 1013.0
20210623182939 71 133 1.0 5.0 0.00 0.00 0.00 66 1013.0
20210623182438 70 79 2.0 5.0 0.00 0.00 0.00 67 1013.0
20210623181937 69 213 2.0 6.0 0.00 0.00 0.00 67 1013.0
20210623181438 69 269 2.0 6.0 0.00 0.00 0.00 68 1013.0
20210623180941 69 307 2.0 6.0 0.00 0.00 0.00 67 1013.0
20210623180437 69 62 2.0 5.0 0.00 0.00 0.00 67 1013.0
20210623175940 69 321 2.0 5.0 0.00 0.00 0.00 68 1013.0
20210623175437 69 303 2.0 6.0 0.00 0.00 0.00 67 1013.0
20210623174938 68 348 2.0 6.0 0.00 0.00 0.00 69 1013.0
20210623174443 68 291 2.0 6.0 0.00 0.00 0.00 69 1013.0
20210623173932 68 47 2.0 6.0 0.00 0.00 0.00 68 1013.1
20210623173427 68 309 3.0 6.0 0.00 0.00 0.00 69 1013.1
20210623172921 67 311 3.0 7.0 0.00 0.00 0.00 69 1013.1
20210623172420 68 302 2.0 7.0 0.00 0.00 0.00 69 1013.0
20210623171911 68 317 1.0 6.0 0.00 0.00 0.00 69 1013.0
20210623171403 67 338 2.0 5.0 0.00 0.00 0.00 70 1013.1
20210623170907 67 280 2.0 6.0 0.00 0.00 0.00 71 1013.1
20210623170350 67 311 1.0 6.0 0.00 0.00 0.00 71 1013.2
20210623165846 66 145 2.0 5.0 0.00 0.00 0.00 72 1013.2
20210623165338 66 279 1.0 6.0 0.00 0.00 0.00 71 1013.2
20210623164832 66 337 1.0 5.0 0.00 0.00 0.00 71 1013.2
20210623164328 66 240 1.0 3.0 0.00 0.00 0.00 71 1013.2
20210623163828 66 221 1.0 3.0 0.00 0.00 0.00 73 1013.2
20210623163329 65 254 1.0 4.0 0.00 0.00 0.00 73 1013.2
20210623162826 65 261 1.0 4.0 0.00 0.00 0.00 75 1013.2
20210623162326 64 245 1.0 4.0 0.00 0.00 0.00 75 1013.2
20210623161827 64 8 1.0 4.0 0.00 0.00 0.00 74 1013.2
20210623161326 64 34 2.0 6.0 0.00 0.00 0.00 75 1013.1
20210623160827 64 264 2.0 6.0 0.00 0.00 0.00 75 1013.1
20210623160325 64 311 1.0 4.0 0.00 0.00 0.00 76 1013.1
20210623155825 63 274 2.0 5.0 0.00 0.00 0.00 76 1013.0
20210623155330 63 326 2.0 5.0 0.00 0.00 0.00 76 1013.1
20210623154827 63 311 1.0 5.0 0.00 0.00 0.00 76 1013.0
20210623154327 63 292 2.0 5.0 0.00 0.00 0.00 76 1013.0
20210623153825 63 330 1.0 5.0 0.00 0.00 0.00 76 1013.0
20210623153325 63 324 1.0 5.0 0.00 0.00 0.00 76 1013.0
20210623152825 62 232 2.0 4.0 0.00 0.00 0.00 78 1012.9
20210623152325 62 254 1.0 5.0 0.00 0.00 0.00 78 1012.9
20210623151818 62 299 1.0 5.0 0.00 0.00 0.00 78 1012.9
20210623151313 62 268 1.0 5.0 0.00 0.00 0.00 78 1012.9
20210623150820 62 255 1.0 5.0 0.00 0.00 0.00 78 1012.9
20210623150305 61 242 1.0 4.0 0.00 0.00 0.00 79 1012.8
20210623145800 61 186 1.0 5.0 0.00 0.00 0.00 81 1012.8
20210623145248 60 211 2.0 5.0 0.00 0.00 0.00 81 1012.8
20210623144742 60 316 1.0 5.0 0.00 0.00 0.00 81 1012.8